星链-34380 (STARLINK-34380)

导读

STARLINK-34380是美国(US)SpaceX星链计划中的低轨互联网通信卫星,于2025年6月8日发射入轨。它依托星链星座的密集组网能力,可为全球偏远地区、海上与空中载体提供低延迟高速互联网接入服务,进一步扩充了星链星座的服务覆盖范围与通信容量。

基本信息
目录编号:
64307
目录名称:
STARLINK-34380
国际标识:
2025-123S
轨道中心:
EARTH
卫星名称:
星链-34380
卫星全名:
星链-34380 (STARLINK-34380)
卫星状态:
在轨 (已飞行370 天)
发射日期:
2025-06-08 UTC
国别 :
美国 (US)
星等 :
--
轨道信息
数据来源 国际轨道数据 AOE轨道数据
星历时间 2026-06-13T22:49:42+0800
8小时前
查看轨道信息
2026-06-11T14:00:00+0800
2天前
查看轨道信息
半长轴 6950.202km 6950.158km
偏心率 0.0002983 0.000307
轨道倾角 70.001° 70.001°
近地点辐角 265.516° 272.151°
升交点赤经 312.745° 318.715°
平近点角 94.566° 279.386°
近地点 569.991km 569.887km
远地点 574.139km 574.155km
周期 96.107分钟 96.106分钟
每日圈数 14.983273 14.983413
详细信息
固有亮度:
5
最大亮度:
2.5
卫星平台:
Starlink V1.0
覆盖范围:
全球
运营商:
太空探索技术公司
运营商所在国:
美国
制造商(研发单位):
太空探索技术公司
制造商所在国:
美国
使用方式:
暂无
卫星简介
Starlink 计划是 SpaceX 推出的全球卫星互联网项目,通过发射低轨道卫星,为全球尤其是偏远地区提供高速、低延迟的互联网服务。自 2019 年起,Starlink 已部署数千颗卫星,旨在缩小全球数字鸿沟,推动互联网普及。该项目还为军事、航空等行业提供通信支持,带来广泛经济效益。
2D轨道图
3D轨道图
轨道高度分析图
轨道倾角分析图
轨道综合分析图
查看轨道综合分析图